Location: Unspecified
(0.0000°N, 0.0000°E)
Time: 23:39:22
(UTC+00:00)

Vanguard 1 - Pass Details

Date: 13 February 2018
Orbit: 650 x 3833 km, 34.3° (Epoch: 26 May)

Event Time Altitude Azimuth Distance (km) Brightness Sun altitude
Exits shadow 02:16:45 38° 152° (SSE) 3,137 12.6 -56.8°
Drops below altitude 10° 02:26:53 10° 135° (SE) 5,850 14.4 -54.5°
Sets 02:32:34 0° 132° (SE) 7,298 15.0 -53.2°
